Location: Navajo
(48.7922°N, 105.0603°W)
Time: 05:03:25
(UTC+00:00)

KKS-1 - Pass Details

Date: 07 July 2022
Orbit: 634 x 649 km, 98.2° (Epoch: 18 August)

Event Time Altitude Azimuth Distance (km) Brightness Sun altitude
Rises 06:14:24 0° 4° (N) 2,977 ? -17.7°
Reaches altitude 10° 06:16:54 10° 352° (N) 2,060 ? -17.8°
Maximum altitude 06:20:35 26° 297° (WNW) 1,290 ? -17.9°
Drops below altitude 10° 06:24:14 10° 241° (WSW) 2,041 ? -18.0°
Enters shadow 06:24:55 - 237° (WSW) 2,279 ? -18.1°
